This is the latest recevied weather packets stored in our database for station/object K7ZQU-7. If no packets are shown the sender has not sent any weather packets the latest 10 day(s).
| Time | Temp. | Humidity | Pressure | Rain* | Wind** | Luminosity | Snow |
|---|---|---|---|---|---|---|---|
| 1777619522 | 6.67° C | 62% | 1017.2 hPa | 0 mm | 0 m/s | - | - |
| 1777619223 | 6.67° C | 62% | 1017.3 hPa | 0 mm | 1.34 m/s, 222° | - | - |
| 1777618924 | 7.22° C | 62% | 1017.3 hPa | 0 mm | 0 m/s | - | - |
| 1777618622 | 7.22° C | 61% | 1017.3 hPa | 0 mm | 0 m/s | - | - |
| 1777618323 | 7.22° C | 60% | 1017.3 hPa | 0 mm | 0 m/s | - | - |
| 1777617725 | 7.78° C | 59% | 1017.3 hPa | 0 mm | 0 m/s | - | - |
| 1777617426 | 8.33° C | 58% | 1017.3 hPa | 0 mm | 0 m/s | - | - |
| 1777617124 | 8.33° C | 57% | 1017.3 hPa | 0 mm | 0 m/s | - | - |
| 1777616527 | 8.89° C | 56% | 1017.3 hPa | 0 mm | 0.45 m/s, 228° | - | - |
| 1777615929 | 8.89° C | 55% | 1017.3 hPa | 0 mm | 0.45 m/s, 148° | - | - |
| 1777615627 | 9.44° C | 55% | 1017.5 hPa | 0 mm | 0.45 m/s, 253° | - | - |
| 1777615328 | 9.44° C | 54% | 1017.5 hPa | 0 mm | 0.45 m/s, 214° | - | - |
| 1777614730 | 9.44° C | 54% | 1017.5 hPa | 0 mm | 0.89 m/s, 62° | - | - |
| 1777614432 | 9.44° C | 54% | 1017.5 hPa | 0 mm | 0.89 m/s, 115° | - | - |
| 1777614130 | 9.44° C | 53% | 1017.3 hPa | 0 mm | 0.45 m/s, 201° | - | - |
| 1777613832 | 9.44° C | 53% | 1017.5 hPa | 0 mm | 1.34 m/s, 174° | - | - |
| 1777612934 | 9.44° C | 54% | 1017.6 hPa | 0 mm | 1.34 m/s, 235° | - | - |
| 1777612633 | 9.44° C | 54% | 1017.6 hPa | 0 mm | 1.79 m/s, 176° | - | - |
| 1777612334 | 9.44° C | 55% | 1017.5 hPa | 0 mm | 0.89 m/s, 259° | - | - |
| 1777612035 | 9.44° C | 55% | 1017.5 hPa | 0 mm | 1.79 m/s, 225° | - | - |
| 1777611736 | 9.44° C | 55% | 1017.6 hPa | 0 mm | 0.89 m/s, 214° | - | - |
| 1777611438 | 9.44° C | 55% | 1017.6 hPa | 0 mm | 0.45 m/s, 135° | - | - |
| 1777611135 | 9.44° C | 55% | 1017.5 hPa | 0 mm | 1.34 m/s, 193° | - | - |
| 1777610836 | 9.44° C | 55% | 1017.5 hPa | 0 mm | 0.89 m/s, 219° | - | - |
| 1777610537 | 10° C | 54% | 1017.5 hPa | 0 mm | 0.45 m/s, 231° | - | - |
* Rain latest hour (hover to see other rain measurements)
** Current wind speed in m/s (hover to see current wind gust speed)